Dewpoint
40 41 41 41 41 41 40 41 41 40 40 39 39 38 38 37 37 36 36 35 33 32 32 32 33 35 37 41 43 43 43 42 42 41 41 40 39 39 38 37 37 36 36 36 36 36 36 36 36 36 36 36 36 36 36 36 36 36 37 37 38 39 39 40 40 40 41 42 42 42 42 41 41 40 40 40 40 40 40 40 40 40 40 40 40 40
40 40 41 41 40 40 40 40 40 40 40 39 38 37 36 35 35 35 34 33 31 30 29 30 31 32 34 39 41 42 42 42 41 41 40 39 38 38 37 36 36 35 35 35 35 35 35 35 35 35 35 35 35 35 35 35 35 35 35 36 36 37 37 37 38 38 39 40 40 40 40 40 39 39 39 39 39 39 39 39 39 39 39 39 39 39
39 40 40 40 40 40 39 39 39 39 39 38 36 35 34 35 34 34 33 31 30 28 27 28 29 31 32 37 40 42 42 41 41 40 40 38 37 36 36 35 35 35 35 34 34 34 34 34 34 34 34 35 35 35 35 35 35 34 34 34 35 35 35 35 35 36 36 36 37 37 37 38 37 37 38 38 38 38 38 38 38 38 38 38 38 38
39 39 39 39 39 39 38 38 37 37 36 35 34 33 33 33 32 31 30 28 27 27 26 26 27 30 32 35 39 41 42 41 40 40 38 37 36 35 35 35 34 34 34 34 34 34 33 33 33 33 33 34 34 34 34 34 33 33 33 33 33 33 34 34 34 34 34 34 35 35 35 35 36 36 36 36 36 36 36 36 36 36 37 37 37 37
39 39 39 39 38 37 36 36 36 36 35 34 33 32 32 31 31 30 29 28 27 26 26 26 26 28 31 34 38 41 41 40 40 38 37 36 35 35 34 33 33 32 32 33 33 33 32 32 32 32 33 33 33 33 33 33 32 32 32 32 32 32 32 32 32 32 32 32 33 33 34 34 35 35 35 35 35 35 35 35 35 35 36 36 36 36
38 39 39 38 37 36 35 35 35 35 35 34 33 31 31 29 29 29 29 28 28 26 26 26 26 26 29 33 37 40 40 39 38 37 36 35 35 34 33 32 32 31 31 32 32 32 31 31 31 32 32 33 33 33 32 32 32 32 32 32 32 31 31 31 31 31 31 32 32 33 33 34 34 34 35 35 35 35 35 35 35 35 35 35 35 36
38 38 38 36 35 35 34 35 35 36 35 34 33 31 30 29 29 28 26 26 26 26 26 26 26 26 26 31 35 37 37 37 37 36 36 35 34 33 32 32 31 31 31 31 31 31 31 31 31 31 32 32 32 32 32 32 32 32 32 32 32 31 31 31 31 31 31 32 32 32 33 33 34 34 34 35 35 35 35 35 35 35 35 35 35 35
37 37 36 35 34 34 34 34 34 34 34 34 32 31 30 29 29 28 26 25 24 25 26 26 26 25 25 26 30 33 34 33 33 34 34 35 35 34 33 32 31 31 31 31 31 31 30 30 30 31 31 32 32 32 31 31 32 32 32 32 32 32 32 31 31 31 31 31 31 32 32 33 33 33 34 34 34 34 34 34 35 35 35 35 35 35
37 36 35 35 34 34 34 32 31 30 30 32 32 31 30 29 29 29 28 26 25 24 24 25 25 25 25 24 26 29 33 32 31 31 31 32 32 33 34 33 32 31 30 31 31 30 30 29 30 30 31 31 32 31 31 31 31 32 32 32 32 32 32 32 32 32 31 31 31 31 31 32 32 32 33 33 33 33 33 33 34 34 34 34 35 35
37 36 35 34 34 34 34 32 29 27 26 29 30 30 29 29 29 30 31 28 26 24 23 23 24 24 24 23 24 26 29 31 32 33 33 31 31 32 33 33 33 33 31 31 31 30 29 29 29 30 31 31 31 31 31 30 31 31 31 32 32 32 32 32 32 32 32 32 32 31 31 31 31 31 31 31 31 32 32 32 33 33 33 34 34 35
36 36 35 33 31 30 31 30 28 26 26 28 28 27 27 27 28 31 32 29 26 25 23 22 22 22 23 23 23 23 23 23 25 26 29 29 29 31 31 31 32 33 32 32 31 31 30 30 30 31 31 31 31 30 30 30 30 30 31 31 32 32 32 32 32 33 33 32 32 32 32 32 32 32 31 31 31 31 31 32 32 33 33 33 34 34
36 35 34 32 31 29 28 27 27 27 29 30 30 29 28 24 25 28 32 31 28 26 23 22 20 19 20 20 21 21 20 20 20 20 21 22 23 24 24 25 27 29 29 31 32 32 32 31 31 31 32 31 31 30 29 30 31 31 31 31 32 32 32 32 32 32 32 33 33 33 33 33 33 32 32 31 31 31 32 32 32 32 33 33 34 34
35 35 34 33 32 31 29 29 29 30 31 32 32 31 30 24 22 23 27 27 26 23 21 21 21 20 18 18 18 19 19 20 19 18 18 18 18 18 17 18 19 20 21 23 25 28 32 32 31 32 32 32 31 31 30 31 31 31 31 31 32 32 32 32 32 32 32 32 32 32 33 33 33 33 32 32 32 32 32 32 32 32 33 33 34 35
34 34 34 33 32 31 31 31 31 32 33 32 31 29 26 23 21 21 22 22 21 18 18 20 21 21 19 18 18 17 17 18 19 19 19 17 16 15 15 17 17 17 17 18 19 22 29 28 26 27 31 32 32 32 32 32 31 31 31 31 32 32 32 32 32 32 32 33 32 32 32 33 33 33 33 32 32 32 32 32 32 32 32 33 34 34
34 34 34 33 33 32 31 32 33 33 31 28 25 22 21 20 21 22 23 22 20 18 19 20 21 21 21 19 18 17 16 18 19 20 19 18 16 15 14 16 17 17 16 18 19 21 25 23 21 22 25 29 31 32 33 34 33 31 31 31 31 32 32 32 32 32 32 32 32 32 32 32 33 33 32 32 32 32 32 31 31 31 32 32 33 34
34 34 34 33 32 31 30 31 32 31 27 22 21 21 22 22 22 22 24 22 20 19 21 22 22 22 22 21 19 18 16 18 18 19 19 18 17 15 14 15 17 18 17 18 19 19 19 17 18 19 22 28 31 31 30 31 31 31 31 31 31 31 32 32 32 32 32 32 32 32 32 32 32 32 32 32 32 31 31 31 31 31 31 32 32 33
34 34 33 33 32 30 27 27 27 26 23 21 20 21 22 22 22 22 22 21 20 20 21 21 21 21 21 21 21 19 16 17 17 17 17 18 17 16 14 15 17 19 18 18 18 17 17 17 18 20 23 30 31 31 30 30 30 30 31 31 31 31 31 32 32 32 32 32 32 32 32 32 32 32 32 32 32 31 31 31 31 31 31 31 32 32
32 32 32 32 31 29 26 24 22 21 21 21 19 18 17 17 18 19 19 20 20 20 19 19 19 18 18 19 19 17 15 16 17 17 17 18 17 16 13 14 16 17 17 18 17 17 16 15 16 19 26 30 31 31 30 30 30 31 31 31 31 31 31 31 32 32 32 32 32 32 32 32 32 32 32 32 32 32 31 31 31 31 31 32 32 32
30 29 30 30 29 26 25 24 23 22 23 23 22 21 20 18 17 17 17 18 19 19 18 17 17 15 15 18 18 17 13 15 17 18 18 18 17 16 12 14 17 18 17 18 18 17 16 15 19 25 31 31 31 31 31 31 31 31 31 31 31 31 31 31 31 31 32 32 32 32 32 32 32 32 31 31 31 31 31 31 31 32 32 33 33 33
28 26 26 27 26 26 25 26 26 26 26 26 25 24 22 20 19 18 17 17 16 15 15 17 16 15 13 16 16 15 12 14 17 17 17 16 16 15 12 13 16 17 17 17 17 15 14 13 16 22 29 30 31 31 31 30 30 30 31 31 31 31 31 31 31 31 31 31 31 32 32 32 32 32 32 31 31 31 31 31 32 32 33 34 34 35
28 27 26 27 28 29 29 29 28 27 28 27 26 24 22 21 21 20 17 16 14 14 14 17 17 16 14 15 16 15 12 15 17 17 15 15 15 15 13 12 13 14 17 17 17 15 14 13 14 17 28 31 32 32 31 30 30 30 30 30 30 30 30 30 31 31 31 31 31 31 31 31 31 32 32 32 32 32 32 32 32 32 33 34 35 36
31 29 25 24 27 31 32 29 28 28 29 28 27 26 24 23 22 20 17 16 17 17 18 18 17 15 14 15 15 13 11 14 16 17 16 16 16 16 14 13 13 14 18 17 16 14 13 14 15 19 28 32 33 32 31 30 30 30 30 30 30 30 30 30 30 30 30 31 31 31 31 31 31 31 31 31 31 31 32 32 32 33 33 34 34 35
30 29 26 23 24 26 28 27 27 28 29 29 28 27 25 25 25 23 20 19 18 18 16 15 15 15 14 14 14 13 13 14 15 16 17 17 17 16 13 13 13 15 17 16 15 14 14 15 17 20 26 31 32 31 30 30 30 30 30 30 30 30 30 30 30 30 30 30 30 31 30 30 30 31 31 31 31 31 31 32 32 32 32 33 33 33
26 26 25 23 22 22 24 26 26 25 25 23 22 20 21 22 21 20 19 18 18 17 16 16 16 16 15 16 15 14 15 14 14 15 18 18 17 16 13 13 15 17 19 17 15 14 15 16 17 19 22 28 31 31 30 30 30 30 30 30 30 29 29 29 29 29 29 30 30 30 30 30 30 30 30 30 30 31 31 31 31 31 32 32 32 33
24 24 24 23 23 24 25 26 26 25 22 22 21 22 22 22 21 20 19 18 17 17 17 17 17 16 14 17 17 16 16 14 14 14 17 17 16 14 12 12 14 16 18 16 14 14 15 17 18 18 18 23 27 30 30 30 30 30 30 30 30 30 29 29 29 29 29 29 30 30 30 30 30 30 30 30 30 30 31 31 31 31 31 32 32 33
27 27 26 27 29 30 30 30 29 28 26 25 24 23 23 23 22 22 21 19 19 19 19 18 17 15 12 12 13 15 16 15 13 14 15 16 16 14 12 12 12 13 16 14 14 15 17 18 17 17 16 18 24 29 30 30 30 30 30 30 30 30 30 29 29 29 29 29 29 30 30 30 30 30 30 30 30 30 31 31 31 31 31 31 32 33
32 32 33 33 33 33 32 32 32 31 31 29 27 25 24 23 22 22 20 18 17 17 18 16 15 14 13 13 13 14 14 16 15 13 13 16 16 15 13 12 11 11 13 14 15 17 22 20 18 17 17 15 19 25 30 30 30 30 30 30 30 30 30 30 30 30 30 30 30 30 30 30 30 30 30 30 30 30 30 31 31 31 31 32 32 33
35 35 35 35 34 34 34 33 33 33 32 31 31 29 26 24 22 22 20 17 17 17 17 16 15 15 15 14 13 13 12 15 16 15 13 16 17 16 13 12 11 11 12 14 17 19 22 20 17 15 14 15 18 22 26 29 30 30 30 31 31 30 30 30 30 30 30 30 30 30 30 30 30 30 30 30 30 30 30 30 30 31 32 32 31 31
35 35 35 35 35 35 34 34 34 34 33 33 31 30 27 23 22 21 19 17 17 17 17 17 15 14 13 13 12 13 13 15 16 17 15 17 16 14 11 10 10 10 11 14 16 17 17 17 15 13 12 17 19 20 21 24 26 27 28 30 30 30 30 30 30 30 30 29 29 29 29 29 29 30 30 30 30 30 30 30 31 31 32 31 30 28
30 31 30 31 31 31 31 31 31 33 33 33 31 30 27 22 21 20 19 19 19 18 17 16 15 13 12 12 13 14 15 15 16 17 17 17 16 13 10 10 9 9 11 14 15 15 15 17 16 14 14 17 18 17 16 19 21 22 22 26 28 29 30 29 29 29 29 29 29 29 29 29 29 29 29 30 30 30 30 30 31 31 31 29 28 27
25 25 23 22 22 23 24 26 27 29 31 31 31 29 25 21 20 19 19 19 19 18 17 16 15 14 13 14 15 16 16 15 17 18 17 18 16 13 11 11 10 9 10 13 14 14 14 17 17 17 16 16 15 16 17 18 18 17 17 20 23 26 30 29 29 29 29 29 29 29 29 29 29 29 29 29 30 30 30 30 30 31 31 29 28 27
22 22 21 20 19 19 21 21 22 22 24 25 26 26 25 22 21 20 19 19 18 18 17 15 15 14 14 15 15 15 16 14 17 19 17 17 14 11 9 10 10 9 10 11 13 13 13 15 17 17 14 14 14 15 17 19 18 16 17 18 19 22 27 28 28 28 29 29 29 29 29 29 29 29 29 29 29 30 30 30 30 30 31 29 28 28
22 20 18 19 19 18 18 17 18 19 20 19 20 21 22 23 23 22 19 18 18 18 17 16 14 13 13 13 13 14 15 14 17 20 20 17 14 11 9 9 9 9 10 10 10 10 12 12 13 13 13 14 14 15 16 18 18 17 15 17 17 19 23 25 25 25 27 27 28 28 29 29 29 30 30 30 30 30 30 30 30 30 31 30 30 29
22 21 19 19 19 18 17 16 16 17 18 18 18 18 18 20 22 22 20 19 18 18 18 17 16 14 13 12 13 13 14 14 18 22 23 17 14 12 9 9 9 9 10 10 9 8 9 8 8 10 13 15 15 15 15 16 17 16 13 14 16 17 19 20 21 21 22 23 22 22 25 26 27 29 30 30 30 30 30 29 29 30 29 31 31 30
21 20 19 17 17 18 19 17 17 17 17 17 17 17 17 18 18 19 20 19 18 17 17 17 17 17 16 14 14 15 16 14 19 24 25 17 14 13 11 10 10 10 11 10 9 9 9 9 10 11 13 14 15 16 16 14 14 14 13 14 15 16 16 16 16 17 18 19 19 19 19 20 22 25 27 29 30 29 29 29 29 29 29 30 31 30
19 18 17 15 16 18 18 18 18 18 18 17 15 15 16 16 16 17 17 17 18 18 18 17 17 17 17 17 17 17 17 15 18 23 26 19 16 14 14 12 12 12 13 11 10 10 10 10 12 13 14 13 14 15 16 14 14 14 14 15 15 15 15 14 13 13 14 16 17 18 17 19 20 22 25 28 29 29 29 29 29 29 29 29 29 30
18 17 16 13 13 15 17 17 16 17 17 16 14 13 15 14 14 14 14 14 15 17 19 19 18 18 19 16 16 17 17 16 18 22 26 21 17 15 15 13 14 14 13 13 12 11 11 11 12 12 12 12 12 13 15 15 15 14 14 15 15 15 14 14 13 12 12 15 17 18 19 20 21 22 24 27 28 28 28 28 29 29 29 29 29 29
19 17 15 12 11 12 14 15 16 17 17 16 15 13 13 11 11 12 12 12 12 12 14 15 16 17 21 20 18 15 13 13 17 22 23 18 15 15 15 14 15 16 15 15 13 13 12 12 12 12 10 10 12 14 15 15 14 14 14 15 15 14 13 13 12 11 12 15 17 19 22 21 20 18 19 21 22 22 22 22 26 28 28 28 28 28
18 17 16 14 12 12 13 15 16 16 16 15 14 13 11 12 12 12 11 11 12 12 12 13 13 13 13 16 18 18 15 13 15 17 16 13 13 14 16 15 14 14 14 13 12 13 12 12 11 11 11 10 10 11 12 12 11 12 12 14 15 15 14 13 13 13 14 14 17 19 20 17 16 16 16 16 17 18 19 19 22 25 24 22 24 26
17 17 16 17 15 13 12 15 16 15 13 14 16 16 14 14 13 13 13 14 13 13 11 11 11 12 13 16 17 17 16 13 15 16 12 8 9 12 16 16 15 14 13 10 10 11 12 11 11 12 13 11 10 11 11 9 10 13 17 16 16 16 18 17 14 12 13 12 13 15 15 14 14 16 17 16 16 17 17 17 18 20 22 19 18 19
17 16 16 17 16 16 15 16 14 13 13 14 14 14 14 13 13 13 14 14 14 13 13 14 14 13 12 9 8 8 10 11 13 13 8 5 6 9 15 16 16 14 13 12 10 10 13 12 12 11 10 9 11 13 13 12 14 18 21 17 16 16 17 19 17 14 12 10 10 12 15 17 18 19 18 19 18 17 17 17 16 17 20 17 16 15
20 19 16 15 14 13 13 12 13 13 13 13 12 13 13 13 13 12 12 12 12 12 11 13 14 14 14 14 11 8 6 7 10 12 10 6 5 8 12 15 16 15 14 13 11 11 14 14 14 12 10 10 11 12 12 13 15 18 20 17 17 17 20 20 15 10 11 11 9 10 17 17 17 17 18 18 17 16 18 17 18 20 22 18 15 13
21 19 15 13 12 12 13 15 16 15 14 13 12 11 11 11 13 14 15 12 12 12 13 13 13 14 15 14 13 12 9 5 6 8 12 9 7 8 10 13 14 15 16 14 12 12 13 16 16 14 13 14 14 14 14 16 16 16 17 17 17 17 15 16 13 9 10 13 13 12 14 16 16 16 17 17 17 17 17 20 23 25 26 22 18 15
18 16 12 10 10 12 14 14 13 13 13 13 13 11 8 9 12 14 13 11 11 11 10 9 9 11 12 12 12 12 11 8 6 6 10 12 11 9 10 10 11 13 15 15 13 12 12 14 16 15 15 16 17 17 17 17 17 16 14 16 17 18 17 16 14 13 13 15 16 15 13 15 15 14 15 16 16 16 16 16 16 17 22 21 20 17
13 13 11 12 13 13 13 11 11 11 12 12 11 9 8 9 12 14 12 10 9 10 8 9 11 13 12 11 11 10 9 9 9 9 9 14 18 18 14 12 11 12 14 15 16 15 14 14 14 16 17 18 19 19 19 19 19 18 18 18 19 19 18 18 17 17 17 17 17 17 14 14 14 14 15 15 15 15 15 16 16 17 17 18 18 18
12 11 11 12 12 13 13 11 10 9 10 10 10 8 7 8 10 12 13 10 9 8 7 9 12 14 14 13 10 8 9 10 12 12 11 13 16 19 19 17 16 14 14 15 15 16 16 16 15 15 17 19 20 20 20 19 19 18 17 18 18 17 17 18 18 17 17 17 17 17 15 13 14 16 17 17 17 16 16 16 17 17 17 17 17 17
11 10 9 9 10 10 10 9 9 10 11 11 9 8 7 7 8 10 11 9 8 8 10 11 12 13 13 11 8 8 10 10 11 11 11 12 14 17 18 19 19 18 17 17 17 18 19 18 18 18 19 20 20 20 20 19 19 18 17 17 17 17 17 17 17 17 17 18 18 17 13 13 15 17 18 18 17 17 16 16 17 17 18 19 18 18
13 13 11 10 9 9 8 8 9 10 12 11 9 8 7 7 9 10 9 8 9 11 13 11 11 11 11 8 8 8 11 10 11 12 12 11 12 14 17 18 19 19 19 20 21 21 21 21 21 21 21 21 20 19 19 19 19 18 17 17 17 17 17 18 17 17 17 17 17 17 16 17 18 18 18 18 18 18 17 17 17 18 19 20 20 20
13 13 12 11 10 9 8 8 8 9 11 11 9 8 7 10 15 16 9 8 9 11 12 12 12 11 11 8 8 9 13 12 11 10 10 10 10 12 15 18 20 20 20 21 22 22 22 23 23 23 23 22 21 20 20 19 18 18 17 18 18 18 18 19 19 18 18 17 17 16 16 18 19 19 19 19 19 19 18 18 18 18 20 20 20 20
13 13 13 12 11 10 9 9 9 10 12 11 10 9 6 8 10 12 10 8 9 10 11 11 12 12 11 9 9 10 11 10 9 9 10 9 10 12 15 18 20 20 20 21 21 22 22 22 23 24 25 25 23 22 21 20 19 19 19 19 19 19 19 19 20 20 20 19 17 16 15 17 17 18 19 19 19 20 20 19 19 19 19 18 18 19
13 13 13 12 12 12 10 10 11 12 12 13 12 10 8 7 8 10 9 9 10 10 10 10 11 12 12 12 12 12 13 11 11 11 12 11 11 13 16 18 20 20 20 20 20 20 20 19 20 21 23 26 26 25 22 21 20 20 20 19 19 19 20 20 20 20 21 21 19 18 17 17 17 18 19 19 19 20 20 20 19 18 17 16 16 17